Voltar ao catálogo

COSMOS 2546

AtivoNavegaçãoHEO
NORAD 45608·PAYLOAD·🇷🇺 Russia

Lançado May 22, 2020 de Plesetsk Cosmodrome

Loading…

Próximas Passagens (próximas 24 horas)

TLE

EnvelhecendoSource: Space-Track

Época: Aug 31, 2026, 07:05 UTC

1 45608U 20031A   26243.29559994 -.00000360  00000-0  00000-0 0  9998
2 45608  63.1638  56.8572 7115328 266.6524  17.3178  2.00576418 45978

Acompanhe COSMOS 2546 em tempo real com AllMySat

Download on the App Store